CAPE
0 0 0 0 0 0 0 0 0 0 0 0 0 0 25 110 69 13 0 0 0 0 0 0 0 0 0 0 0 0 16 92 142 235 230 140 111 65 29 3 15 0 0 0 0 0 0 0 0
0 0 0 0 0 0 0 0 0 0 0 0 0 6 111 122 63 47 5 0 0 0 0 0 0 0 0 0 0 0 3 52 110 253 295 247 218 130 70 17 4 0 0 0 0 0 0 0 0
0 0 0 0 0 0 0 0 0 0 0 0 0 0 54 71 74 65 14 0 0 0 0 0 0 0 0 0 0 0 0 19 123 257 341 293 276 156 63 14 0 0 0 0 0 0 0 0 0
0 0 0 0 0 0 0 0 0 0 0 0 0 6 67 45 80 65 39 0 0 0 0 0 0 0 0 0 0 0 0 2 115 273 373 304 308 140 53 15 0 0 0 0 0 0 0 0 0
0 0 0 0 0 0 0 0 0 0 0 0 0 0 76 36 58 83 29 0 0 0 0 0 0 0 0 0 0 0 0 0 19 122 163 204 196 85 54 8 0 0 0 0 0 0 0 0 1
0 0 0 0 0 0 0 0 0 0 0 0 0 0 24 25 75 51 0 0 0 0 0 0 33 1 0 0 0 0 0 0 0 20 42 73 64 46 44 12 0 0 0 0 17 19 11 8 16
0 0 0 0 0 0 0 0 0 0 0 0 0 0 3 6 177 79 0 0 0 0 0 0 15 23 0 0 0 0 0 0 0 0 0 0 8 39 21 1 0 0 0 0 23 45 34 22 41
0 0 0 0 0 0 0 0 0 0 0 0 0 0 21 10 278 210 12 0 0 0 0 0 2 0 0 0 0 0 0 0 0 0 0 0 0 0 0 0 0 0 0 0 12 41 47 52 100
0 0 0 0 0 0 0 0 0 0 0 0 0 0 5 0 35 52 39 0 0 0 0 0 0 0 0 0 0 0 0 0 0 0 0 0 0 0 0 0 0 0 0 0 6 39 59 140 178
0 0 0 0 0 0 0 0 0 0 0 0 0 0 0 3 23 55 20 4 0 0 0 0 0 0 0 0 0 0 0 0 0 0 0 0 0 0 0 0 0 0 0 0 1 50 123 227 218
0 0 0 0 0 0 0 0 0 0 0 0 0 0 0 0 4 27 40 68 29 23 109 99 0 0 0 0 0 0 0 0 0 0 0 0 0 0 0 0 0 0 0 0 0 62 176 184 197
0 0 0 0 0 0 0 0 0 0 0 0 0 0 0 0 0 0 2 83 342 413 258 209 91 0 0 0 0 0 0 0 0 0 0 0 0 0 0 0 0 0 0 0 0 0 27 93 141
0 0 0 0 0 0 0 0 0 0 0 0 0 0 0 0 0 0 0 0 74 493 686 491 334 140 6 0 0 0 0 0 0 0 0 0 0 0 0 0 0 0 0 0 0 0 12 33 40
0 0 0 0 0 0 0 0 0 0 0 0 0 0 0 0 0 0 0 17 0 128 491 691 544 267 40 2 0 0 0 0 9 17 0 0 0 0 0 0 0 0 0 0 0 2 18 29 41
0 0 0 0 0 0 0 0 0 0 0 0 0 0 0 0 0 0 0 0 0 27 310 570 645 460 194 85 185 142 170 209 201 160 138 149 94 119 28 0 0 0 0 0 2 12 28 48 69
0 0 0 0 0 0 0 0 0 0 0 0 0 0 0 0 0 0 0 0 3 29 181 274 548 565 489 440 445 401 408 412 409 361 359 315 280 229 147 79 18 2 0 0 9 39 58 53 128
0 0 0 0 0 0 0 0 0 0 0 0 0 0 0 0 0 0 0 0 0 25 88 243 310 610 466 412 665 776 822 825 733 637 646 631 559 382 311 249 148 25 12 0 2 53 116 204 211
0 0 0 0 0 0 0 0 0 0 0 0 0 0 0 0 0 0 0 0 0 0 55 200 386 267 358 440 617 818 972 1077 1022 853 789 821 835 676 514 437 269 179 37 30 33 102 170 288 324
0 0 0 0 0 0 0 0 0 0 0 0 0 0 0 0 0 0 0 0 0 0 0 87 457 420 525 527 604 760 646 187 392 757 903 1065 1162 1020 686 574 640 427 362 192 156 164 256 277 216
0 0 0 0 0 0 0 0 0 0 0 0 0 0 0 0 0 0 0 0 0 0 0 8 542 543 716 746 819 766 272 258 362 392 444 543 897 1099 1106 862 842 789 724 630 547 444 426 378 217
0 0 0 0 0 0 0 0 0 0 0 0 0 0 0 0 0 0 0 0 0 0 0 2 291 696 887 740 533 356 305 198 123 74 124 238 774 1353 1320 1253 1167 1043 891 970 846 737 656 584 322
0 0 0 0 0 0 0 0 0 0 0 0 0 0 0 0 0 0 0 0 0 0 0 9 30 339 539 366 248 66 1 0 0 0 113 626 968 1331 1355 1327 1334 1349 1255 1177 946 832 675 542 577
0 0 0 0 0 0 0 0 0 0 0 0 0 0 0 0 0 0 0 0 0 0 0 10 54 94 151 142 82 21 0 0 0 0 15 207 1072 1401 1507 1488 1332 1257 1203 1182 1105 901 768 621 617
0 0 0 0 0 0 0 0 0 0 0 0 0 0 0 0 0 0 0 0 0 0 0 1 15 76 57 54 5 0 0 0 0 87 74 534 1375 1484 1522 1418 1363 1393 1211 1309 1120 979 883 665 449
0 0 0 0 0 0 0 0 0 0 0 0 0 0 0 0 0 0 0 0 0 0 0 0 0 76 6 0 2 0 0 0 0 34 94 764 1430 1410 1404 1397 1345 1267 1240 1357 1085 1098 865 600 581
0 0 0 0 0 0 0 0 0 0 0 0 0 0 0 0 0 0 0 0 0 0 0 0 0 18 0 0 0 0 0 0 0 23 290 1017 1492 1440 1434 1427 1360 1155 1256 1104 1035 1042 816 650 430
0 0 0 5 0 0 0 0 0 0 0 0 0 0 0 0 0 0 0 0 0 0 0 0 0 0 0 0 0 0 0 0 0 87 509 1141 1490 1460 1476 1406 955 1113 1067 962 884 798 643 508 386
0 0 0 5 0 0 0 0 0 0 0 0 0 0 0 0 0 0 0 0 0 0 0 0 0 0 0 0 0 0 4 45 61 278 554 1229 1455 1482 1403 1133 1022 1121 1011 772 611 477 327 157 120
0 3 29 1 2 1 0 0 12 0 0 0 0 0 0 0 0 0 0 0 0 0 0 0 0 0 0 0 0 67 76 344 650 766 735 1181 1428 1370 1133 1076 1098 1085 885 580 373 68 130 147 61
0 7 7 0 0 0 0 0 0 0 0 0 0 0 0 0 0 0 0 0 717 625 515 436 148 18 0 15 46 306 863 1043 1018 1046 1302 1463 1470 1242 1161 1165 1080 905 638 328 105 44 58 87 30
CIN
0 0 0 0 0 0 0 0 0 0 0 0 0 0 -67 -73 -98 -58 0 0 0 0 0 0 0 0 0 0 0 0 -519 -401 -352 -314 -296 -310 -306 -329 -383 -61 -356 0 0 0 0 0 0 0 0
0 0 0 0 0 0 0 0 0 0 0 0 0 -31 -84 -95 -219 -344 -285 0 0 0 0 0 0 0 0 0 0 0 -516 -479 -404 -340 -320 -330 -317 -339 -356 -383 -188 0 0 0 0 0 0 0 0
0 0 0 0 0 0 0 0 0 0 0 0 0 0 -96 -99 -235 -329 -354 0 0 0 0 0 0 0 0 0 0 0 0 -540 -436 -375 -344 -346 -332 -359 -368 -425 0 0 0 0 0 0 0 0 0
0 0 0 0 0 0 0 0 0 0 0 0 0 -49 -107 -159 -182 -287 -502 0 0 0 0 0 0 0 0 0 0 0 0 -71 -450 -394 -371 -368 -357 -379 -399 -463 0 0 0 0 0 0 0 0 0
0 0 0 0 0 0 0 0 0 0 0 0 0 0 -72 -203 -250 -362 -464 0 0 0 0 0 0 0 0 0 0 0 0 0 -456 -454 -426 -405 -393 -411 -432 -356 0 0 0 0 0 0 0 0 -76
0 0 0 0 0 0 0 0 0 0 0 0 0 0 -114 -198 -220 -365 0 0 0 0 0 0 -828 -199 0 0 0 0 0 0 0 -518 -487 -467 -452 -454 -457 -512 0 0 0 0 -514 -518 -533 -511 -464
0 0 0 0 0 0 0 0 0 0 0 0 0 0 -39 -125 -254 -337 0 0 0 0 0 0 -881 -387 0 0 0 0 0 0 0 0 0 0 -303 -487 -504 -85 0 0 0 0 -523 -478 -487 -479 -442
0 0 0 0 0 0 0 0 0 0 0 0 0 0 -117 -108 -221 -353 -185 0 0 0 0 0 -230 0 0 0 0 0 0 0 0 0 0 0 0 0 0 0 0 0 0 0 -559 -488 -460 -438 -408
0 0 0 0 0 0 0 0 0 0 0 0 0 0 -57 0 -308 -313 -355 0 0 0 0 0 0 0 0 0 0 0 0 0 0 0 0 0 0 0 0 0 0 0 0 0 -342 -498 -438 -391 -359
0 0 0 0 0 0 0 0 0 0 0 0 0 0 0 -139 -182 -150 -169 -144 0 0 0 -1 0 0 0 0 0 0 0 0 0 0 0 0 0 0 0 0 0 0 0 0 -148 -499 -422 -347 -345
0 0 0 0 0 0 0 0 0 0 0 0 0 0 0 0 -125 -82 -120 -128 -153 -231 -427 -551 0 0 0 0 0 0 0 0 0 0 0 0 0 0 0 0 0 0 0 0 -52 -508 -418 -396 -368
0 0 0 0 0 0 0 0 0 0 0 0 0 0 0 0 0 0 -64 -105 -150 -221 -261 -373 -507 -32 0 0 0 0 0 0 0 0 0 0 0 0 0 0 0 0 0 0 0 0 -577 -480 -408
0 0 0 0 0 0 0 0 0 0 0 0 0 0 0 0 0 0 0 0 -138 -188 -256 -341 -445 -477 -285 0 0 0 0 0 0 0 0 0 0 0 0 0 0 0 0 0 0 0 -630 -578 -515
0 0 0 0 0 0 0 0 0 0 0 0 0 0 0 0 0 0 0 -194 0 -153 -164 -252 -364 -449 -583 -426 0 0 0 0 -465 -482 0 0 0 0 0 0 0 0 0 0 0 -353 -603 -561 -510
0 0 0 0 0 0 0 0 0 0 0 0 0 0 0 0 0 0 0 -9 0 -154 -145 -166 -250 -388 -380 -482 -470 -522 -491 -530 -589 -606 -655 -681 -816 -809 -721 0 0 0 0 0 -334 -568 -579 -519 -447
0 0 0 0 0 0 0 0 0 0 0 0 0 0 0 0 0 0 0 0 -26 -136 -146 -135 -274 -261 -303 -327 -374 -469 -384 -442 -485 -501 -501 -627 -707 -736 -738 -698 -684 -232 0 0 -546 -506 -464 -456 -391
0 0 0 0 0 0 0 0 0 0 0 0 0 0 0 0 0 0 0 0 0 -161 -117 -130 -141 -191 -227 -245 -272 -308 -317 -364 -387 -378 -432 -512 -585 -649 -615 -606 -573 -571 -568 0 -312 -465 -385 -315 -303
0 0 0 0 0 0 0 0 0 0 0 0 0 0 0 0 0 0 0 0 0 0 -165 -107 -127 -102 -139 -176 -212 -231 -288 -310 -341 -326 -340 -370 -438 -493 -509 -520 -503 -433 -473 -466 -449 -388 -331 -267 -207
0 0 0 0 0 0 0 0 0 0 0 0 0 0 0 0 0 0 0 0 0 0 0 -253 -141 -161 -161 -162 -180 -199 -181 -294 -319 -288 -314 -300 -309 -360 -458 -461 -367 -343 -345 -358 -353 -315 -254 -235 -211
0 0 0 0 0 0 0 0 0 0 0 0 0 0 0 0 0 0 0 0 0 0 0 -159 -142 -137 -160 -167 -196 -259 -279 -350 -293 -311 -348 -381 -372 -362 -381 -364 -292 -280 -272 -263 -233 -230 -212 -187 -222
0 0 0 0 0 0 0 0 0 0 0 0 0 0 0 0 0 0 0 0 0 0 0 -213 -147 -118 -153 -189 -301 -367 -369 -374 -349 -381 -386 -386 -363 -321 -315 -294 -252 -238 -233 -183 -170 -165 -169 -143 -196
0 0 0 0 0 0 0 0 0 0 0 0 0 0 0 0 0 0 0 0 0 0 0 -225 -228 -159 -190 -281 -268 -257 -183 0 0 0 -321 -295 -334 -306 -278 -244 -217 -198 -173 -147 -143 -133 -164 -159 -103
0 0 0 0 0 0 0 0 0 0 0 0 0 0 0 0 0 0 0 0 0 0 0 -185 -232 -275 -238 -233 -190 -266 0 0 0 0 -341 -362 -313 -292 -239 -192 -177 -173 -169 -144 -108 -123 -142 -146 -104
0 0 0 0 0 0 0 0 0 0 0 0 0 0 0 0 0 0 0 0 0 0 0 -122 -207 -273 -250 -218 -100 0 0 0 0 -320 -315 -323 -260 -237 -190 -185 -146 -131 -149 -112 -102 -101 -102 -116 -122
0 0 0 0 0 0 0 0 0 0 0 0 0 0 0 0 0 0 0 0 0 0 0 0 0 -198 -76 0 -97 0 0 0 0 -309 -284 -269 -215 -203 -169 -147 -123 -108 -110 -78 -101 -83 -92 -102 -61
0 0 0 0 0 0 0 0 0 0 0 0 0 0 0 0 0 0 0 0 0 0 0 0 0 -86 0 0 0 0 0 0 0 -311 -274 -228 -188 -150 -134 -115 -96 -96 -87 -85 -91 -76 -89 -78 -64
0 0 0 -23 0 0 0 0 0 0 0 0 0 0 0 0 0 0 0 0 0 0 0 0 0 0 0 0 0 0 0 0 0 -288 -216 -180 -186 -136 -110 -99 -116 -86 -81 -94 -94 -71 -66 -44 -39
0 -2 -3 -50 -1 0 0 0 0 0 0 0 0 0 0 0 0 0 0 0 0 0 0 0 0 0 0 0 0 0 -125 -265 -250 -174 -149 -160 -137 -114 -101 -112 -92 -72 -66 -102 -90 -73 -69 -73 -76
0 -30 -23 -34 -24 -6 0 0 -94 0 0 0 0 0 0 0 0 0 0 0 0 0 0 0 0 0 0 0 0 -288 -261 -232 -180 -119 -134 -128 -116 -107 -122 -94 -74 -45 -63 -92 -90 -139 -80 -46 -57
0 -24 -59 -1 -2 -9 0 0 -7 0 0 0 0 0 0 0 0 0 0 0 -112 -125 -123 -124 -181 -185 0 -251 -255 -231 -211 -167 -104 -93 -101 -112 -95 -111 -105 -76 -53 -44 -73 -114 -137 -107 -87 -41 -58
Wind_Speed
24 22 18 17 20 22 24 24 28 28 21 21 30 23 5 2 3 18 5 18 21 25 26 27 26 26 26 26 26 25 24 24 24 24 24 24 23 23 23 22 22 21 21 20 20 19 19 18 19
22 18 17 18 23 26 28 28 34 26 29 33 37 26 9 10 11 5 9 12 20 22 25 26 26 25 24 23 23 23 23 23 23 22 21 21 20 20 20 20 19 19 19 19 18 18 17 17 17
21 17 19 22 25 29 25 21 19 25 32 34 31 16 11 10 10 4 5 15 19 20 21 24 25 24 23 23 22 22 23 22 22 21 20 20 18 18 17 17 17 16 16 16 16 16 16 15 16
19 18 21 27 33 32 32 32 30 30 31 26 25 21 15 4 2 2 13 14 17 21 21 23 24 23 22 22 22 21 21 20 20 19 18 18 16 16 15 14 14 13 13 14 14 14 14 14 14
18 19 24 28 36 37 33 31 29 30 29 28 26 26 11 4 0 10 13 17 23 19 21 23 24 22 21 21 21 21 20 19 18 17 16 15 14 13 13 12 11 11 11 11 11 11 11 12 12
20 24 28 34 35 36 33 28 29 28 28 28 25 26 16 10 6 11 13 17 19 20 18 20 23 20 18 18 19 19 17 16 16 16 15 13 12 11 10 10 9 8 8 8 8 9 9 9 10
20 26 36 34 34 36 33 26 30 27 29 22 27 22 14 8 5 10 10 12 15 15 15 15 18 17 16 16 17 17 16 16 15 14 13 11 10 9 8 8 7 6 6 6 6 6 6 7 8
23 26 34 33 36 36 29 27 29 27 28 23 23 21 14 6 7 6 6 10 12 13 14 13 12 11 11 13 14 15 15 14 14 13 11 9 8 7 7 6 4 5 4 3 3 4 4 5 5
24 33 40 36 35 36 30 32 32 29 26 24 19 20 23 6 8 8 8 9 10 9 11 12 11 9 9 9 10 11 12 12 11 10 9 7 6 6 6 4 3 3 2 2 1 1 2 2 3
32 38 40 35 33 39 38 39 38 34 31 25 20 19 14 7 8 9 10 10 12 11 12 11 11 11 9 7 6 8 9 9 9 7 6 5 5 5 4 2 2 3 2 2 1 1 0 0 2
33 41 35 41 36 36 44 47 39 39 39 32 24 24 19 15 16 10 9 12 13 16 13 14 13 12 11 9 7 7 6 6 7 6 5 4 4 4 2 1 2 2 3 2 2 2 2 2 2
43 43 40 41 44 45 45 51 49 44 46 38 31 28 21 21 19 21 13 17 13 14 15 14 14 13 12 9 9 8 6 4 4 4 4 3 3 2 1 2 3 3 3 2 3 3 3 3 3
38 40 40 40 42 41 41 48 49 52 46 42 40 34 31 27 25 25 32 20 18 19 17 16 15 14 12 11 9 8 7 5 3 2 3 3 2 1 2 4 4 4 3 3 3 4 4 4 4
31 36 38 37 40 38 39 44 44 57 46 47 46 42 34 32 31 29 27 26 21 21 20 19 18 15 14 11 10 8 6 5 3 3 3 4 2 3 5 5 5 4 3 4 3 3 3 4 4
34 40 40 38 36 38 38 48 52 46 44 47 48 49 43 35 35 36 22 25 20 19 21 23 20 18 16 12 10 9 8 7 7 5 4 3 3 4 6 6 6 5 4 4 4 4 4 3 4
34 35 38 25 32 32 30 56 47 45 47 50 47 45 54 47 42 39 38 23 22 15 15 22 22 20 19 16 14 12 11 11 10 7 6 5 5 6 7 8 7 6 5 5 4 4 4 4 5
26 35 36 36 30 32 34 49 39 37 42 50 53 51 48 56 47 42 44 42 26 21 21 18 18 18 18 17 14 13 14 13 12 11 9 9 9 8 9 10 9 6 6 6 5 4 4 6 5
35 38 35 37 33 35 39 49 41 38 40 41 41 42 46 50 56 45 47 44 42 28 24 25 24 23 24 18 16 17 19 19 18 15 12 13 12 10 11 11 11 7 7 6 6 4 5 8 5
34 38 39 37 34 39 44 52 47 43 42 43 44 43 45 46 49 55 47 45 47 44 35 33 30 26 25 22 20 20 21 20 18 16 14 14 13 12 11 11 10 7 6 6 5 4 7 7 7
36 41 43 38 35 40 44 54 51 47 45 44 45 48 46 48 49 49 48 46 44 48 42 36 34 29 27 26 23 23 21 22 19 17 16 16 14 12 10 10 9 6 5 5 4 5 9 9 7
38 41 42 44 43 43 41 54 51 50 46 46 45 46 47 46 49 50 51 50 48 45 40 32 32 31 28 26 24 24 22 22 20 22 24 20 15 12 10 9 7 5 4 5 5 5 6 10 9
40 38 46 47 45 48 38 59 53 49 48 47 47 46 47 49 49 50 50 52 47 46 43 37 31 31 30 26 26 23 24 24 26 27 27 22 14 12 10 9 6 5 6 5 4 4 7 8 8
37 37 41 41 42 47 46 47 57 52 58 56 53 54 56 55 54 52 51 51 53 51 46 41 36 34 32 29 27 26 28 28 29 28 26 22 15 13 9 8 6 6 7 4 3 4 5 7 8
32 35 37 35 36 47 44 42 60 53 54 53 51 50 52 55 56 56 52 52 50 50 47 43 37 33 32 29 26 24 26 28 29 27 27 21 15 11 8 7 7 6 5 3 3 4 4 5 8
31 34 42 38 35 43 34 43 46 47 46 49 48 47 49 50 52 57 56 52 49 47 45 41 37 34 31 29 23 21 22 29 29 27 24 19 15 12 9 8 7 6 4 4 4 3 4 5 7
35 31 36 43 42 46 36 43 41 42 38 41 40 44 47 49 50 53 55 54 53 50 43 37 34 33 30 27 24 22 20 23 28 26 23 18 14 12 9 7 6 6 2 3 3 3 4 7 7
33 35 27 35 34 40 37 39 40 29 34 39 42 45 49 49 49 50 50 52 54 52 42 35 33 31 30 27 24 25 22 22 27 27 23 18 15 12 8 6 5 3 3 2 3 4 6 7 6
19 24 30 25 32 36 34 38 40 37 38 40 45 49 53 50 47 45 43 49 54 41 36 31 32 32 30 28 25 26 24 22 23 22 21 16 14 11 8 6 3 1 1 2 4 6 8 7 5
21 22 18 22 23 30 35 34 28 35 36 42 45 49 49 45 42 37 37 40 38 36 33 34 35 35 34 30 22 23 24 20 17 19 17 15 12 10 7 4 2 1 2 2 5 6 6 4 4
5 12 16 24 24 28 32 43 29 29 38 41 44 47 45 42 38 32 32 30 29 26 24 24 25 25 23 25 23 22 18 16 15 16 14 12 11 8 6 4 3 4 3 2 4 5 4 4 4
Wind_Direction
282 279 280 279 267 267 262 257 246 237 270 283 289 292 168 206 229 283 0 127 126 124 129 131 128 122 115 111 110 107 102 101 99 97 97 94 92 89 86 85 86 83 80 77 73 72 67 62 58
283 278 277 273 262 259 256 250 232 253 269 281 286 267 285 284 287 340 111 134 134 128 130 132 133 126 118 113 111 111 108 107 106 104 101 98 92 89 89 86 89 86 81 77 76 70 67 61 60
277 275 267 263 259 252 256 254 260 267 279 283 291 275 279 287 294 124 143 136 138 133 134 135 135 131 122 117 116 116 116 112 112 111 108 104 96 91 92 92 93 89 84 78 77 74 68 65 60
275 269 269 260 255 253 251 251 262 279 287 295 297 272 291 282 151 240 145 135 142 139 138 138 138 136 128 123 121 119 119 114 115 115 113 110 102 98 96 96 98 95 93 87 81 74 71 67 59
279 270 265 263 256 252 253 258 272 277 287 292 292 287 278 246 340 143 153 146 143 144 140 141 143 139 133 126 124 123 122 120 120 119 116 113 111 108 103 103 106 104 99 87 83 76 75 69 60
273 263 264 260 259 253 255 264 274 278 284 293 300 300 271 277 146 148 152 155 156 152 149 145 145 142 135 128 128 128 125 121 123 125 122 115 117 114 113 113 111 112 100 92 85 82 78 67 59
271 261 257 262 264 259 252 266 268 280 282 292 297 292 288 249 241 157 163 162 162 161 156 153 147 142 138 134 132 131 129 129 129 132 125 120 122 126 124 122 119 118 110 105 91 87 79 63 60
271 270 260 261 259 259 259 264 271 280 282 292 299 294 289 221 165 189 196 173 169 169 166 165 160 149 143 140 138 134 133 134 135 137 132 128 126 138 147 131 132 148 130 118 92 82 78 62 54
271 264 256 260 261 254 266 263 265 276 281 290 294 306 274 241 219 188 174 190 194 194 184 179 177 170 160 153 143 136 137 136 137 138 141 135 129 144 161 141 154 172 161 157 99 79 67 69 46
257 261 259 264 270 266 265 261 262 270 276 275 295 307 320 256 198 177 184 195 201 195 206 200 191 184 182 174 160 143 136 134 139 136 140 144 141 157 161 169 211 210 203 214 224 301 241 333 7
262 262 270 264 272 275 263 257 263 262 260 266 283 291 296 275 257 208 218 191 201 192 195 200 199 197 189 186 179 162 150 145 148 149 151 150 153 164 156 267 312 262 226 269 262 297 288 289 291
261 263 266 266 263 267 264 259 262 260 253 261 269 275 281 273 276 261 253 255 244 219 202 208 203 198 192 211 202 193 182 170 160 162 160 160 170 176 216 295 313 295 266 274 268 289 276 271 267
269 271 271 273 271 271 271 263 262 260 256 265 266 269 271 277 275 276 282 261 236 244 239 225 219 215 213 215 205 215 202 194 199 184 179 182 208 254 336 319 323 308 289 296 280 271 272 267 268
278 277 276 276 274 275 275 271 268 245 266 263 263 264 271 273 276 279 287 271 253 241 239 236 233 234 235 220 202 214 231 242 265 257 229 205 241 328 337 330 319 308 291 301 288 272 260 254 314
280 273 276 276 279 276 277 267 258 265 268 265 263 264 264 271 273 271 284 279 273 249 241 235 231 236 231 227 217 244 243 272 280 267 253 246 264 317 333 327 315 302 290 301 283 284 294 293 323
279 278 273 285 287 283 276 260 264 267 268 264 265 268 263 265 269 271 267 275 276 264 248 240 246 231 234 243 251 248 262 279 282 280 279 269 282 309 325 323 307 308 298 308 296 287 274 279 309
285 276 277 281 290 283 273 268 273 275 271 264 264 266 267 262 266 269 266 266 274 264 247 241 233 231 234 244 248 256 271 274 280 283 275 289 292 303 305 312 310 302 302 305 305 288 284 309 308
282 280 282 283 288 287 279 270 275 276 274 273 273 273 268 264 260 266 265 265 265 270 260 240 233 235 248 242 250 267 276 276 283 280 267 298 294 294 302 309 311 296 297 298 298 286 296 320 287
289 285 284 289 292 284 278 272 274 276 277 276 275 275 272 271 269 263 263 264 261 262 270 260 243 245 242 251 255 266 270 275 275 273 281 285 277 288 302 311 309 292 283 272 274 286 319 320 338
294 288 287 290 295 286 282 273 273 275 276 277 277 275 276 273 271 270 267 262 263 261 264 264 253 244 241 249 258 269 270 275 273 275 282 282 287 292 302 307 304 285 286 290 266 297 326 330 337
296 292 292 290 292 288 289 274 274 273 278 278 279 277 276 276 273 270 269 266 261 262 261 258 255 248 243 247 258 271 279 283 282 289 296 295 293 292 295 302 299 281 276 294 297 303 322 328 338
297 301 294 288 286 279 289 276 275 278 279 279 279 279 277 276 276 274 270 267 265 260 260 258 255 248 243 245 250 254 264 270 283 288 295 300 293 288 295 299 295 300 304 299 297 312 328 334 331
307 306 301 294 285 284 279 280 276 280 277 278 279 278 276 276 275 274 272 269 266 262 259 257 259 250 243 242 250 256 269 277 285 290 293 293 293 292 299 302 297 299 303 290 291 324 332 339 338
318 311 308 302 288 277 282 284 276 280 282 282 283 283 281 276 272 269 269 267 268 263 259 257 258 256 242 242 244 250 264 274 282 288 289 291 290 292 297 303 301 305 307 307 305 326 334 344 344
321 312 299 295 288 283 291 286 283 288 291 287 288 288 284 282 276 269 265 267 267 264 258 254 254 250 242 243 239 235 256 273 278 281 283 283 282 288 285 296 298 303 272 305 322 337 344 350 349
315 313 297 289 286 289 297 285 289 298 299 295 299 296 289 283 278 271 265 264 264 262 257 249 246 241 240 245 240 248 249 270 277 275 277 275 268 272 278 283 293 308 290 321 347 358 356 351 356
313 304 310 295 294 289 293 295 299 308 301 302 300 300 294 287 279 274 266 265 261 261 253 245 241 237 241 239 244 258 261 268 274 274 272 268 262 264 262 276 289 299 315 350 17 358 351 348 358
331 322 302 296 290 292 293 296 299 303 302 305 303 300 296 285 277 274 272 269 259 253 246 244 243 236 237 245 250 260 265 270 274 267 265 259 255 247 244 268 274 280 346 52 12 351 345 350 6
339 324 316 305 300 298 297 299 316 308 303 302 304 300 293 279 274 268 274 276 256 245 246 246 248 248 251 250 249 262 270 273 269 261 256 251 238 226 232 222 213 188 119 45 358 350 358 16 35
353 348 323 308 301 302 304 283 317 320 313 309 299 298 286 269 257 266 276 273 256 241 237 244 243 243 242 246 255 263 267 270 262 257 249 227 213 209 197 182 159 138 126 25 5 3 26 56 66